EW1710 Weather Reports


Display with metric or nautical units.
time (UTC)temp
F
wind
direction
speed
MPH
gust
MPH
rain 1hr
in
rain 24hr
in
rain mn
in
humidity
%
barometer
mb
20260906183103 77 326 2.0 2.0 0.00 0.00 0.00 68 1019.8
20260906182558 76 5 3.0 3.0 0.00 0.00 0.00 64 1020.0
20260906182055 77 218 2.0 3.0 0.00 0.00 0.00 62 1020.1
20260906181550 75 25 2.0 3.0 0.00 0.00 0.00 61 1020.1
20260906181046 75 283 2.0 2.0 0.00 0.00 0.00 64 1019.9
20260906180545 75 33 1.0 1.0 0.00 0.00 0.00 60 1020.1
20260906180044 75 135 0.0 0.0 0.00 0.00 0.00 58 1019.8
20260906175543 76 108 0.0 0.0 0.00 0.00 0.00 58 1020.1
20260906175038 77 139 1.0 1.0 0.00 0.00 0.00 56 1020.0
20260906174536 77 136 1.0 1.0 0.00 0.00 0.00 54 1019.9
20260906174032 78 141 4.0 6.0 0.00 0.00 0.00 52 1020.2
20260906173526 77 48 2.0 2.0 0.00 0.00 0.00 57 1020.0
20260906173017 78 355 1.0 1.0 0.00 0.00 0.00 56 1019.9
20260906172511 79 151 1.0 2.0 0.00 0.00 0.00 57 1019.9
20260906172007 78 153 1.0 1.0 0.00 0.00 0.00 52 1019.9
20260906171501 78 134 3.0 5.0 0.00 0.00 0.00 51 1020.1
20260906170956 79 166 2.0 2.0 0.00 0.00 0.00 52 1020.0
20260906170453 78 183 1.0 1.0 0.00 0.00 0.00 53 1020.4
20260906165949 79 158 5.0 6.0 0.00 0.00 0.00 52 1019.9
20260906165448 79 99 1.0 1.0 0.00 0.00 0.00 58 1020.3
20260906164944 79 137 4.0 3.0 0.00 0.00 0.00 53 1020.1
20260906164442 77 98 1.0 1.0 0.00 0.00 0.00 54 1020.2
20260906163939 76 147 1.0 1.0 0.00 0.00 0.00 59 1020.1
20260906163434 77 98 2.0 2.0 0.00 0.00 0.00 55 1020.5
20260906162932 78 101 2.0 2.0 0.00 0.00 0.00 58 1020.2
20260906162430 77 58 4.0 6.0 0.00 0.00 0.00 56 1020.4
20260906161926 76 122 1.0 1.0 0.00 0.00 0.00 63 1020.2
20260906161425 76 113 3.0 3.0 0.00 0.00 0.00 60 1020.3
20260906160925 77 162 2.0 2.0 0.00 0.00 0.00 58 1020.3
20260906160418 76 113 2.0 2.0 0.00 0.00 0.00 59 1020.5
20260906155916 75 42 1.0 1.0 0.00 0.00 0.00 60 1020.5
20260906155405 76 154 1.0 1.0 0.00 0.00 0.00 58 1020.5
20260906154902 76 96 1.0 1.0 0.00 0.00 0.00 61 1020.4
20260906154401 76 83 3.0 2.0 0.00 0.00 0.00 59 1020.5
20260906153859 76 38 2.0 2.0 0.00 0.00 0.00 59 1020.5
20260906153353 76 325 1.0 1.0 0.00 0.00 0.00 60 1020.3
20260906152848 77 13 5.0 6.0 0.00 0.00 0.00 58 1020.6
20260906152343 76 11 2.0 3.0 0.00 0.00 0.00 61 1020.5
20260906151842 75 36 3.0 3.0 0.00 0.00 0.00 63 1020.6
20260906151338 75 287 3.0 5.0 0.00 0.00 0.00 61 1020.6
20260906150834 75 155 3.0 3.0 0.00 0.00 0.00 60 1020.7
20260906150329 75 103 3.0 3.0 0.00 0.00 0.00 62 1020.5
20260906145828 75 95 1.0 2.0 0.00 0.00 0.00 67 1020.6
20260906145327 74 147 1.0 2.0 0.00 0.00 0.00 63 1020.4
20260906144822 75 55 4.0 5.0 0.00 0.00 0.00 61 1020.4
20260906144317 75 346 3.0 3.0 0.00 0.00 0.00 64 1020.4
20260906143816 74 175 2.0 2.0 0.00 0.00 0.00 65 1020.4
20260906143314 74 19 2.0 3.0 0.00 0.00 0.00 64 1020.2
20260906142809 74 90 0.0 1.0 0.00 0.00 0.00 68 1020.3
20260906142306 74 147 3.0 3.0 0.00 0.00 0.00 65 1020.4
20260906141803 73 65 1.0 2.0 0.00 0.00 0.00 70 1020.5
20260906141257 73 119 1.0 1.0 0.00 0.00 0.00 67 1020.3
20260906140756 74 108 2.0 2.0 0.00 0.00 0.00 68 1020.2
20260906140251 73 85 1.0 1.0 0.00 0.00 0.00 72 1020.1
20260906135749 73 74 1.0 1.0 0.00 0.00 0.00 72 1020.2
20260906135244 74 179 3.0 2.0 0.00 0.00 0.00 70 1020.1
20260906134740 73 148 0.0 0.0 0.00 0.00 0.00 70 1020.1
20260906134235 72 169 2.0 2.0 0.00 0.00 0.00 75 1020.3
20260906133730 71 35 1.0 1.0 0.00 0.00 0.00 77 1020.2
20260906133226 70 68 1.0 1.0 0.00 0.00 0.00 78 1020.1
20260906132721 70 23 2.0 2.0 0.00 0.00 0.00 80 1019.8
20260906132216 70 49 2.0 1.0 0.00 0.00 0.00 80 1019.8
20260906131711 68 115 1.0 1.0 0.00 0.00 0.00 83 1020.1
20260906131201 68 95 1.0 1.0 0.00 0.00 0.00 82 1019.9
20260906130655 69 107 1.0 1.0 0.00 0.00 0.00 85 1019.8
20260906130151 68 89 0.0 0.0 0.00 0.00 0.00 88 1019.9
20260906125643 67 110 0.0 0.0 0.00 0.00 0.00 95 1019.8
20260906125142 66 108 0.0 0.0 0.00 0.00 0.00 98 1019.6
20260906124638 65 215 0.0 0.0 0.00 0.00 0.00 99 1019.6
20260906124133 64 216 0.0 0.0 0.00 0.00 0.00 99 1019.5
20260906123632 64 216 0.0 0.0 0.00 0.00 0.00 98 1019.6
20260906123127 64 215 0.0 0.0 0.00 0.00 0.00 99 1019.5
20260906122626 65 215 0.0 0.0 0.00 0.00 0.00 99 1019.3
20260906122122 63 216 0.0 0.0 0.00 0.00 0.00 99 1019.6
20260906121618 61 216 0.0 0.0 0.00 0.00 0.00 99 1019.5
20260906121114 60 216 0.0 0.0 0.00 0.00 0.00 99 1019.3
20260906120610 58 216 0.0 0.0 0.00 0.00 0.00 99 1019.3
20260906120107 58 216 0.0 0.0 0.00 0.00 0.00 99 1019.3
20260906115606 57 216 0.0 0.0 0.00 0.00 0.00 99 1019.5
20260906115102 57 216 0.0 0.0 0.00 0.00 0.00 99 1019.5
20260906114556 56 217 0.0 0.0 0.00 0.00 0.00 99 1019.3
20260906114051 56 216 0.0 0.0 0.00 0.00 0.00 99 1019.3
20260906113550 56 216 0.0 0.0 0.00 0.00 0.00 99 1019.0
20260906113046 56 216 0.0 0.0 0.00 0.00 0.00 99 1019.0
20260906112540 55 216 0.0 0.0 0.00 0.00 0.00 99 1018.9
20260906112037 55 216 0.0 0.0 0.00 0.00 0.00 99 1018.8
20260906111536 55 216 0.0 0.0 0.00 0.00 0.00 99 1019.0
20260906111032 55 216 0.0 0.0 0.00 0.00 0.00 99 1018.7
20260906110531 55 216 0.0 0.0 0.00 0.00 0.00 99 1018.9
20260906110031 55 216 0.0 0.0 0.00 0.00 0.00 99 1018.7
20260906105526 55 216 0.0 0.0 0.00 0.00 0.00 99 1018.7
20260906105022 55 216 0.0 0.0 0.00 0.00 0.00 99 1018.7
20260906104520 55 216 0.0 0.0 0.00 0.00 0.00 99 1018.6
20260906104015 55 216 0.0 0.0 0.00 0.00 0.00 99 1018.6
20260906103513 54 216 0.0 0.0 0.00 0.00 0.00 98 1018.9
20260906103009 55 216 0.0 0.0 0.00 0.00 0.00 98 1018.6
20260906102508 55 216 0.0 0.0 0.00 0.00 0.00 98 1018.6
20260906102003 55 216 0.0 0.0 0.00 0.00 0.00 98 1018.6
20260906101457 56 216 0.0 0.0 0.00 0.00 0.00 98 1018.9
20260906100952 56 216 0.0 0.0 0.00 0.00 0.00 99 1018.7
20260906100447 56 216 0.0 0.0 0.00 0.00 0.00 98 1018.7
20260906095942 56 216 1.0 1.0 0.00 0.00 0.00 99 1018.6
20260906095438 56 216 0.0 0.0 0.00 0.00 0.00 98 1018.6
20260906094932 56 216 0.0 0.0 0.00 0.00 0.00 98 1018.7
20260906094426 56 216 0.0 0.0 0.00 0.00 0.00 98 1018.6
20260906093923 56 216 0.0 0.0 0.00 0.00 0.00 98 1018.6
20260906093419 56 216 0.0 0.0 0.00 0.00 0.00 98 1018.4
20260906092918 56 216 0.0 0.0 0.00 0.00 0.00 98 1018.4
20260906092412 56 216 0.0 0.0 0.00 0.00 0.00 98 1018.4
20260906091908 56 216 0.0 0.0 0.00 0.00 0.00 98 1018.5
20260906091358 56 216 0.0 0.0 0.00 0.00 0.00 98 1018.5
20260906090855 56 216 0.0 0.0 0.00 0.00 0.00 98 1018.5
20260906090354 56 216 0.0 0.0 0.00 0.00 0.00 98 1018.6
20260906085848 56 216 1.0 1.0 0.00 0.00 0.00 98 1018.7
20260906085342 56 216 0.0 0.0 0.00 0.00 0.00 98 1018.5
20260906084837 56 216 0.0 0.0 0.00 0.00 0.00 98 1018.3
20260906084336 56 216 0.0 0.0 0.00 0.00 0.00 98 1018.6
20260906083830 56 216 0.0 0.0 0.00 0.00 0.00 98 1018.4
20260906083326 56 216 0.0 0.0 0.00 0.00 0.00 98 1018.4
20260906082820 56 216 0.0 0.0 0.00 0.00 0.00 98 1018.3
20260906082315 56 216 0.0 0.0 0.00 0.00 0.00 98 1018.2
20260906081811 56 216 0.0 0.0 0.00 0.00 0.00 98 1018.3
20260906081307 57 216 0.0 0.0 0.00 0.00 0.00 98 1018.2
20260906080803 57 216 0.0 0.0 0.00 0.00 0.00 98 1018.2
20260906080259 57 216 0.0 0.0 0.00 0.00 0.00 98 1018.4
20260906075758 57 216 1.0 1.0 0.00 0.00 0.00 98 1018.0
20260906075253 57 216 0.0 1.0 0.00 0.00 0.00 98 1018.0
20260906074748 57 216 0.0 0.0 0.00 0.00 0.00 98 1017.8
20260906074247 56 216 0.0 0.0 0.00 0.00 0.00 98 1017.8
20260906073748 57 216 0.0 0.0 0.00 0.00 0.00 98 1017.9
20260906073248 57 216 0.0 0.0 0.00 0.00 0.00 98 1017.8
20260906072743 57 216 0.0 0.0 0.00 0.00 0.00 98 1017.9
20260906072239 57 216 0.0 0.0 0.00 0.00 0.00 98 1018.1
20260906071735 57 216 0.0 0.0 0.00 0.00 0.00 98 1017.7
20260906071235 57 216 0.0 0.0 0.00 0.00 0.00 98 1017.8
20260906070731 56 216 0.0 0.0 0.00 0.00 0.00 98 1017.7
20260906070227 56 216 0.0 0.0 0.00 0.00 0.00 98 1017.7
20260906065726 57 216 0.0 0.0 0.00 0.00 0.00 98 1017.6
20260906065221 57 216 0.0 0.0 0.00 0.00 0.00 98 1017.7
20260906064717 57 216 0.0 0.0 0.00 0.00 0.00 98 1017.9
20260906064213 57 216 0.0 0.0 0.00 0.00 0.00 98 1017.9
20260906063707 57 217 1.0 1.0 0.00 0.00 0.00 98 1017.9
20260906063203 57 216 0.0 0.0 0.00 0.00 0.00 98 1017.9
20260906062659 57 216 0.0 0.0 0.00 0.00 0.00 98 1017.7
20260906062157 57 216 0.0 0.0 0.00 0.00 0.00 98 1017.9
20260906061654 57 216 0.0 0.0 0.00 0.00 0.00 98 1018.0
20260906061149 57 216 0.0 0.0 0.00 0.00 0.00 98 1017.8
20260906060645 57 216 0.0 0.0 0.00 0.00 0.00 98 1017.7
20260906060142 57 216 0.0 0.0 0.00 0.00 0.00 98 1017.7
20260906055638 57 216 0.0 0.0 0.00 0.00 0.00 98 1017.7
20260906055133 57 216 0.0 0.0 0.00 0.00 0.00 98 1017.8
20260906054628 57 216 0.0 0.0 0.00 0.00 0.00 98 1017.8
20260906054123 57 216 1.0 1.0 0.00 0.00 0.00 97 1017.9
20260906053620 57 216 1.0 0.0 0.00 0.00 0.00 97 1017.7
20260906053119 57 216 0.0 0.0 0.00 0.00 0.00 97 1017.7
20260906052616 57 216 0.0 0.0 0.00 0.00 0.00 97 1017.6
20260906052112 57 216 0.0 0.0 0.00 0.00 0.00 97 1017.6
20260906051608 57 216 0.0 0.0 0.00 0.00 0.00 97 1017.7
20260906051103 57 216 0.0 0.0 0.00 0.00 0.00 97 1017.7
20260906050558 58 216 0.0 0.0 0.00 0.00 0.00 97 1017.8
20260906050053 58 216 0.0 0.0 0.00 0.00 0.00 97 1017.9
20260906045551 58 216 0.0 0.0 0.00 0.00 0.00 97 1017.8
20260906045047 58 216 0.0 0.0 0.00 0.00 0.00 97 1018.0
20260906044543 58 216 0.0 0.0 0.00 0.00 0.00 97 1018.1
20260906044038 58 216 0.0 0.0 0.00 0.00 0.00 97 1017.6
20260906043533 58 216 0.0 0.0 0.00 0.00 0.00 97 1017.9
20260906043030 57 216 0.0 0.0 0.00 0.00 0.00 97 1017.7
20260906042528 57 216 0.0 0.0 0.00 0.00 0.00 97 1017.6
20260906042023 58 216 0.0 0.0 0.00 0.00 0.00 97 1017.7
20260906041520 58 216 0.0 0.0 0.00 0.00 0.00 97 1017.7
20260906041019 58 216 0.0 0.0 0.00 0.00 0.00 97 1017.9
20260906040515 58 216 0.0 0.0 0.00 0.00 0.00 97 1017.9
20260906040010 58 216 0.0 0.0 0.00 0.14 0.14 97 1018.1
20260906035505 58 216 0.0 0.0 0.00 0.14 0.14 97 1017.9
20260906035000 58 216 0.0 0.0 0.00 0.14 0.14 96 1017.9
20260906034454 58 216 0.0 0.0 0.00 0.14 0.14 96 1017.9
20260906033949 58 216 0.0 0.0 0.00 0.14 0.14 96 1017.8
20260906033444 58 216 0.0 0.0 0.00 0.14 0.14 96 1017.9
20260906032940 58 216 0.0 0.0 0.00 0.14 0.14 96 1017.9
20260906032437 58 216 0.0 0.0 0.00 0.14 0.14 96 1017.7
20260906031937 59 216 0.0 0.0 0.00 0.14 0.14 96 1018.1
20260906031432 58 216 0.0 0.0 0.00 0.14 0.14 96 1017.8
20260906030927 59 216 0.0 0.0 0.00 0.14 0.14 96 1017.9
20260906030422 59 216 0.0 0.0 0.00 0.14 0.14 96 1018.0
20260906025916 59 216 0.0 0.0 0.00 0.14 0.14 96 1018.0
20260906025411 59 216 0.0 0.0 0.00 0.14 0.14 96 1017.6
20260906024910 59 216 0.0 0.0 0.00 0.14 0.14 96 1017.7
20260906024409 59 216 0.0 0.0 0.00 0.14 0.14 96 1017.6
20260906023904 59 216 0.0 0.0 0.00 0.14 0.14 95 1017.6
20260906023400 59 216 0.0 0.0 0.00 0.14 0.14 95 1017.7
20260906022855 59 216 0.0 0.0 0.00 0.14 0.14 95 1017.6
20260906022349 59 216 0.0 0.0 0.00 0.14 0.14 95 1017.7
20260906021845 59 216 0.0 0.0 0.00 0.14 0.14 94 1017.3
20260906021344 59 216 0.0 0.0 0.00 0.14 0.14 94 1017.2
20260906020834 59 216 0.0 0.0 0.00 0.14 0.14 93 1017.6
20260906020333 59 216 0.0 0.0 0.00 0.14 0.14 93 1017.5
20260906015828 59 216 0.0 0.0 0.00 0.14 0.14 93 1017.1
20260906015326 60 216 0.0 0.0 0.00 0.14 0.14 92 1017.6
20260906014821 60 216 0.0 0.0 0.00 0.14 0.14 92 1017.4
20260906014316 60 216 0.0 0.0 0.00 0.14 0.14 92 1017.5
20260906013812 60 216 0.0 0.0 0.00 0.14 0.14 92 1017.2
20260906013307 60 216 0.0 0.0 0.00 0.14 0.14 91 1017.1
20260906012803 61 216 0.0 0.0 0.00 0.14 0.14 91 1017.2
20260906012257 61 216 0.0 0.0 0.00 0.14 0.14 91 1017.3
20260906011753 61 216 0.0 0.0 0.00 0.14 0.14 91 1017.5
20260906011252 61 216 0.0 0.0 0.00 0.14 0.14 90 1017.4
20260906010748 62 215 1.0 1.0 0.00 0.14 0.14 91 1017.2
20260906010244 62 215 0.0 0.0 0.00 0.14 0.14 90 1017.1
20260906005739 62 215 0.0 0.0 0.00 0.14 0.14 90 1017.0
20260906005238 62 214 0.0 0.0 0.00 0.14 0.14 90 1016.9
20260906004737 62 214 0.0 0.0 0.00 0.14 0.14 90 1017.0
20260906004232 62 214 0.0 0.0 0.00 0.14 0.14 90 1017.2
20260906003727 62 213 0.0 0.0 0.00 0.14 0.14 89 1017.2
20260906003217 62 213 0.0 0.0 0.00 0.14 0.14 88 1017.1
20260906002711 63 213 0.0 0.0 0.00 0.14 0.14 87 1017.1
20260906002206 63 213 0.0 0.0 0.00 0.14 0.14 86 1017.0
20260906001701 64 213 0.0 0.0 0.00 0.14 0.14 87 1017.1
20260906001201 64 213 1.0 1.0 0.00 0.14 0.14 86 1017.1
20260906000657 64 213 0.0 0.0 0.00 0.14 0.14 84 1016.8
20260906000152 65 214 1.0 1.0 0.00 0.14 0.14 82 1017.1
20260905235651 66 198 1.0 1.0 0.00 0.14 0.14 80 1016.7
20260905235146 66 197 0.0 0.0 0.00 0.14 0.14 78 1016.6
20260905234641 66 197 1.0 1.0 0.00 0.14 0.14 78 1016.6
20260905234137 67 194 0.0 0.0 0.00 0.14 0.14 77 1016.5
20260905233632 68 199 1.0 1.0 0.00 0.14 0.14 78 1016.5
20260905233126 68 198 0.0 0.0 0.00 0.14 0.14 77 1016.7
20260905232622 69 191 0.0 0.0 0.00 0.14 0.14 75 1016.7
20260905232118 69 166 1.0 1.0 0.00 0.14 0.14 74 1016.3
20260905231617 70 168 1.0 1.0 0.00 0.14 0.14 71 1016.2
20260905231114 70 53 0.0 0.0 0.00 0.14 0.14 74 1016.6
20260905230609 71 6 1.0 1.0 0.00 0.14 0.14 72 1016.3
20260905230106 71 313 0.0 0.0 0.00 0.14 0.14 71 1016.3
20260905225601 72 39 1.0 1.0 0.00 0.14 0.14 67 1016.2
20260905225055 72 117 0.0 0.0 0.00 0.14 0.14 68 1016.2
20260905224550 73 142 2.0 2.0 0.00 0.14 0.14 70 1016.1
20260905224049 73 348 1.0 1.0 0.00 0.14 0.14 71 1016.2
20260905223547 73 32 2.0 2.0 0.00 0.14 0.14 68 1016.1
20260905223042 73 27 1.0 1.0 0.00 0.14 0.14 70 1016.1
20260905222542 73 351 2.0 3.0 0.00 0.14 0.14 71 1016.0
20260905222037 73 147 1.0 1.0 0.00 0.14 0.14 71 1016.3
20260905221534 73 292 3.0 3.0 0.00 0.14 0.14 70 1015.8
20260905221030 74 166 1.0 1.0 0.00 0.14 0.14 69 1015.7
20260905220525 74 359 1.0 1.0 0.00 0.14 0.14 69 1015.9
20260905220021 74 80 1.0 1.0 0.00 0.14 0.14 68 1016.0
20260905215515 74 229 2.0 2.0 0.00 0.14 0.14 67 1015.9
20260905215012 75 38 1.0 1.0 0.00 0.14 0.14 70 1015.7
20260905214507 77 34 4.0 5.0 0.00 0.14 0.14 66 1015.7
20260905214002 77 4 0.0 0.0 0.00 0.14 0.14 69 1015.6
20260905213458 76 352 1.0 1.0 0.00 0.14 0.14 70 1015.4
20260905212952 75 343 1.0 1.0 0.00 0.14 0.14 71 1015.6
20260905212447 75 311 2.0 2.0 0.00 0.14 0.14 72 1015.6
20260905211946 74 207 1.0 1.0 0.00 0.14 0.14 75 1015.7
20260905211442 75 302 0.0 0.0 0.00 0.14 0.14 76 1015.6
20260905210938 75 246 2.0 2.0 0.00 0.14 0.14 74 1015.5
20260905210433 75 42 1.0 1.0 0.00 0.14 0.14 73 1015.4
20260905205932 75 242 1.0 1.0 0.00 0.14 0.14 74 1015.4
20260905205427 75 19 1.0 1.0 0.00 0.14 0.14 74 1015.4
20260905204926 75 35 2.0 2.0 0.00 0.14 0.14 73 1015.7
20260905204422 76 317 3.0 3.0 0.00 0.14 0.14 72 1015.6
20260905203921 76 342 1.0 1.0 0.00 0.14 0.14 72 1015.7
20260905203417 75 295 2.0 2.0 0.00 0.14 0.14 75 1015.5
20260905202912 75 18 2.0 2.0 0.00 0.14 0.14 76 1015.8
20260905202407 76 21 2.0 2.0 0.00 0.14 0.14 75 1015.7
20260905201902 77 255 2.0 2.0 0.00 0.14 0.14 74 1015.9
20260905201357 77 338 2.0 3.0 0.00 0.14 0.14 76 1015.9
20260905200851 77 156 1.0 1.0 0.00 0.14 0.14 75 1015.9
20260905200348 77 153 1.0 1.0 0.00 0.14 0.14 75 1015.7
20260905195845 78 357 2.0 2.0 0.00 0.14 0.14 73 1015.7
20260905195341 78 45 1.0 1.0 0.00 0.14 0.14 73 1016.0
20260905194836 78 40 2.0 2.0 0.00 0.14 0.14 74 1015.8
20260905194331 78 47 1.0 1.0 0.00 0.14 0.14 75 1016.0
20260905193830 78 51 2.0 2.0 0.00 0.14 0.14 72 1015.8
20260905193325 79 79 1.0 1.0 0.00 0.14 0.14 74 1015.7
20260905192821 78 74 1.0 1.0 0.00 0.14 0.14 75 1015.9
20260905192317 78 158 1.0 1.0 0.00 0.14 0.14 75 1015.9
20260905191815 77 39 3.0 5.0 0.00 0.14 0.14 77 1015.6
20260905191314 77 353 3.0 3.0 0.00 0.14 0.14 77 1015.8
20260905190812 78 87 1.0 2.0 0.00 0.14 0.14 78 1015.6
20260905190307 78 91 1.0 1.0 0.00 0.14 0.14 77 1015.8
20260905185805 77 125 0.0 0.0 0.00 0.14 0.14 80 1015.8
20260905185300 77 73 0.0 0.0 0.00 0.14 0.14 82 1016.0
20260905184754 77 115 0.0 0.0 0.00 0.14 0.14 80 1016.0
20260905184253 77 148 0.0 0.0 0.00 0.14 0.14 82 1015.9
20260905183747 77 93 0.0 0.0 0.00 0.14 0.14 81 1016.0